Location: Dodgeville, WI 53533, USA
(43.0344°N, 90.0900°W)
Time: 09:53:05
(UTC-06:00)

BlueWalker 3 - Pass Details

Date: 11 November 2025
Orbit: 455 x 462 km, 53.2° (Epoch: 11 December)

Event Time Altitude Azimuth Distance (km) Brightness Sun altitude
Exits shadow 05:38:04 11° 233° (SW) 1,532 4.0 -13.0°
Drops below altitude 10° 05:39:07 10° 216° (SW) 1,599 4.3 -12.8°
Sets 05:42:37 0° 180° (S) 2,463 5.6 -12.2°
